Regional Weather Roundup
Issued by NWS

Home | Current Version | Previous Version | Text Only | Print | Product List | Glossary On
Versions: 1 2 3 4 5 6 7 8 9 10 11 12 13 14 15 16 17 18 19 20 21 22 23 24 25 26 27 28 29 30 31 32 33 34 35 36 37 38 39 40 41 42 43 44 45 46 47 48 49 50
000
ASUS43 KOAX 190602
RWRNE

WEATHER ROUNDUP FOR NEBRASKA
NATIONAL WEATHER SERVICE OMAHA NE
100 AM CDT THU OCT 19 2017

NOTES: SATELLITE DATA IS BEING USED TO AUGMENT CLOUD COVER ABOVE
       12000 FEET.
       "FAIR" INDICATES FEW OR NO CLOUDS BELOW 12,000 FEET WITH NO
       SIGNIFICANT WEATHER AND/OR OBSTRUCTIONS TO VISIBILITY.


NEZ001>004-019>022-054>056-190700-
NEBRASKA PANHANDLE

CITY           SKY/WX    TMP DP  RH WIND       PRES   REMARKS
SCOTTSBLUFF    CLOUDY    46  31  55 E10       30.09S
6HR MIN TEMP:  45; 6HR MAX TEMP:  61;

ALLIANCE       CLOUDY    41  32  70 S8        30.07F
6HR MIN TEMP:  38; 6HR MAX TEMP:  55;

CHADRON        CLOUDY    61  29  29 S28G40    29.98F
6HR MIN TEMP:  54; 6HR MAX TEMP:  62;

GORDON         FAIR      47  32  56 CALM      30.03F
6HR MIN TEMP:  46; 6HR MAX TEMP:  58;

KIMBALL        CLOUDY    43  28  55 CALM      30.13S
SIDNEY         CLOUDY    40  31  70 S8        30.11F WCI  34
6HR MIN TEMP:  35; 6HR MAX TEMP:  60;

$$

NEZ057>060-069>072-079>082-190700-
SOUTHWEST NEBRASKA

CITY           SKY/WX    TMP DP  RH WIND       PRES   REMARKS
NORTH PLATTE   CLEAR     40  34  79 E5        30.10S
6HR MIN TEMP:  38; 6HR MAX TEMP:  61;

IMPERIAL       CLEAR     47  33  58 S3        30.10S
6HR MIN TEMP:  45; 6HR MAX TEMP:  62;

LEXINGTON      CLOUDY    40  36  86 W7        30.09S WCI  35
MCCOOK         CLEAR     46  35  65 CALM      30.09S
6HR MIN TEMP:  46; 6HR MAX TEMP:  63;

OGALLALA       CLEAR     44  34  68 CALM      30.10S
$$

NEZ005>010-023>029-035>040-094-190700-
NORTH CENTRAL NEBRASKA

CITY           SKY/WX    TMP DP  RH WIND       PRES   REMARKS
VALENTINE      CLOUDY    44  34  67 SW9       30.04F
6HR MIN TEMP:  43; 6HR MAX TEMP:  59;

AINSWORTH      CLOUDY    41  36  82 S8        30.05F
BROKEN BOW     CLOUDY    39  35  86 CALM      30.08F
6HR MIN TEMP:  37; 6HR MAX TEMP:  62;

O`NEILL        CLOUDY    47  37  66 S3        30.06S
ORD            CLOUDY    37  33  85 CALM      30.06F
6HR MIN TEMP:  37; 6HR MAX TEMP:  59;

THEDFORD       CLOUDY    42  34  71 CALM      30.09S
$$

NEZ041-046>049-061>064-073>077-083>087-190700-
SOUTH CENTRAL NEBRASKA

CITY           SKY/WX    TMP DP  RH WIND       PRES   REMARKS
GRAND ISLAND   CLEAR     45  39  79 NW5       30.08F
6HR MIN TEMP:  44; 6HR MAX TEMP:  62;

AURORA         CLEAR     48  38  69 N5        30.07S
HASTINGS       CLEAR     46  38  73 N3        30.08F
6HR MIN TEMP:  45; 6HR MAX TEMP:  63;

HEBRON         CLEAR     52  42  70 CALM      30.05S
HOLDREGE       CLOUDY    41  36  80 N5        30.08F
YORK           CLEAR     46  41  81 N5        30.06F
$$

NEZ011>018-030>034-042>045-190700-
NORTHEAST NEBRASKA

CITY           SKY/WX    TMP DP  RH WIND       PRES   REMARKS
NORFOLK        CLOUDY    45  37  73 W3        30.05F
6HR MIN TEMP:  41; 6HR MAX TEMP:  62;

ALBION         CLOUDY    39  36  88 NW5       30.07F
BLAIR          CLEAR     57  46  66 NE6       30.04F
COLUMBUS       CLEAR     45  38  76 NW3       30.06F
FREMONT        CLEAR     47  42  81 CALM      30.05S
TEKAMAH        CLEAR     44  41  89 NW5       30.04S
6HR MIN TEMP:  44; 6HR MAX TEMP:  62;

WAYNE          CLOUDY    38  36  91 CALM      30.05F
$$

NEZ050>053-065>068-078-088>093-190700-
SOUTHEAST NEBRASKA

CITY           SKY/WX    TMP DP  RH WIND       PRES   REMARKS
LINCOLN        CLEAR     46  42  86 N6        30.05F
6HR MIN TEMP:  46; 6HR MAX TEMP:  62;

OMAHA EPPLEY   CLEAR     48  43  82 NW6       30.04S
6HR MIN TEMP:  47; 6HR MAX TEMP:  69;

BEATRICE       CLEAR     50  48  90 E3        30.04S
FALLS CITY     CLEAR     50  47  89 CALM      30.03S
6HR MIN TEMP:  50; 6HR MAX TEMP:  68;

NEBRASKA CITY  CLEAR     56  51  82 CALM      30.04S
PLATTSMOUTH    CLEAR     55  50  83 CALM      30.04S
$$

NEZ044-045-051>053-067-190700-
OMAHA AREA

CITY           SKY/WX    TMP DP  RH WIND       PRES   REMARKS
OMAHA EPPLEY   CLEAR     48  43  82 NW6       30.04S
6HR MIN TEMP:  47; 6HR MAX TEMP:  69;

BLAIR          CLEAR     57  46  66 NE6       30.04F
FREMONT        CLEAR     47  42  81 CALM      30.05S
MILLARD        CLEAR     52  49  89 CALM      30.04S
OFFUTT AFB     CLEAR     47  45  91 CALM      30.03S
PLATTSMOUTH    CLEAR     55  50  83 CALM      30.04S
WAHOO          FAIR      49  42  76 NW3       30.05S
$$




USA.gov is the U.S. government's official web portal to all federal, state and local government web resources and services.